GFSMW_850_thetae_072.txt.gz
Theta_e
329 326 324 323 322 322 322 322 321 320 319 315 318 318 317 318 319 319 318 315 315 314 313 314 315 318 318 320 321 320 319 319 316 313 311 310 310 309 309 310 310 310 308
329 322 323 322 322 322 322 321 321 319 319 316 315 316 316 317 317 315 313 313 313 313 313 313 314 313 317 320 321 321 320 319 316 313 311 310 309 309 309 311 311 310 307
328 322 321 320 320 320 321 320 317 316 316 314 316 316 318 317 316 315 315 313 313 315 315 315 313 312 315 320 322 322 321 320 317 314 312 311 311 311 311 310 310 310 308
328 323 319 319 319 319 319 316 315 315 314 314 313 313 314 315 317 317 316 314 315 314 316 319 320 320 320 321 322 323 322 320 318 316 314 313 312 311 310 310 309 309 308
328 326 321 318 317 319 318 317 316 316 314 315 315 319 320 320 319 318 317 314 314 317 319 320 323 323 323 322 322 321 322 321 319 318 317 315 312 312 310 310 310 309 309
328 327 325 322 320 317 316 318 319 320 319 318 318 321 322 320 319 316 316 316 314 316 320 322 322 324 324 323 322 321 321 322 320 319 317 316 315 312 312 311 311 309 309
327 327 325 323 321 320 319 319 319 319 318 319 320 319 319 316 313 314 317 318 319 319 320 321 322 323 323 322 322 321 322 322 321 319 317 316 315 313 313 312 310 308 308
327 327 326 326 324 323 322 322 322 320 319 318 318 316 318 319 321 322 322 320 319 320 320 321 322 322 322 324 322 321 321 322 321 319 318 315 314 313 312 311 308 307 307
326 326 326 326 326 325 324 321 320 322 321 319 320 318 319 322 323 325 323 322 321 320 321 321 322 322 323 322 321 321 322 321 319 317 316 314 313 312 311 308 307 307 305
326 326 326 327 326 327 326 325 322 320 319 320 321 323 322 323 323 324 325 324 321 322 320 321 321 322 323 323 321 322 321 320 318 317 314 313 312 312 309 307 306 305 304
323 326 326 327 327 327 326 327 326 325 323 323 323 323 324 325 325 324 324 324 323 322 322 319 318 323 324 321 321 321 320 318 316 314 313 312 311 309 307 305 304 303 302
325 326 326 326 326 327 327 326 327 327 324 324 324 325 326 326 326 327 325 325 323 321 318 323 321 324 323 323 321 319 319 317 315 312 311 310 307 305 304 304 302 300 299
322 324 325 326 326 327 327 327 327 326 326 326 327 326 327 326 326 326 323 325 322 318 321 322 323 324 322 320 320 319 317 314 311 310 309 306 304 304 303 302 299 299 298
321 321 324 321 323 328 328 329 329 329 328 329 327 320 324 328 327 325 326 324 323 324 324 324 323 321 320 319 318 316 314 311 310 308 305 304 303 303 300 299 298 298 298
322 322 323 322 323 325 328 329 329 330 330 330 327 322 322 321 326 327 326 325 324 324 323 321 319 319 319 317 315 312 310 309 307 304 303 303 300 298 298 298 298 297 296
320 324 324 324 324 324 325 329 330 331 331 330 328 325 323 326 327 325 324 322 321 320 320 320 318 317 315 313 310 309 307 305 304 303 302 299 297 297 297 296 296 296 295
320 322 323 324 324 325 325 325 329 330 330 329 327 324 325 323 323 321 322 320 320 319 318 316 314 312 311 309 307 305 304 303 302 301 296 295 294 294 293 293 292 292 292
321 321 320 324 325 326 327 327 328 328 327 327 326 325 323 321 320 320 319 318 317 315 314 312 310 309 307 305 304 303 302 299 296 294 292 291 290 290 290 289 288 286 285
321 321 322 322 326 327 328 327 326 326 325 324 324 323 321 320 318 316 315 314 314 311 310 309 307 305 304 303 302 300 297 295 293 292 291 291 289 287 285 285 284 284 284
321 321 322 324 326 328 328 327 325 324 322 321 320 318 317 316 314 312 313 311 310 308 305 304 302 301 301 300 299 296 295 293 292 292 289 286 285 284 284 283 283 283 283
321 321 322 324 328 328 326 324 321 319 319 317 316 314 313 312 311 310 308 307 304 302 301 300 299 298 298 296 295 294 293 292 290 287 285 284 283 282 282 282 282 281 281
321 322 323 323 324 324 322 319 317 317 315 314 312 311 309 307 306 305 304 302 301 300 299 298 296 295 295 294 293 292 290 288 287 285 283 282 282 281 281 281 281 281 280
322 322 322 322 321 320 318 317 314 313 311 310 308 306 305 304 303 302 301 300 300 299 298 296 295 295 293 292 290 289 288 287 284 282 281 281 281 280 280 280 280 280 279
321 321 320 319 318 317 316 315 313 311 309 308 306 304 303 301 300 300 300 298 298 297 295 294 293 292 290 289 288 287 286 283 281 281 280 280 280 280 280 279 279 278 278
319 319 318 316 315 313 312 311 311 309 308 306 304 303 301 300 299 296 295 295 294 293 293 292 290 289 288 287 286 285 282 281 280 280 280 279 279 279 279 278 278 277 277
316 316 314 313 312 311 310 308 308 307 307 304 300 298 298 297 295 294 293 291 290 290 289 287 286 286 284 282 281 281 280 280 280 279 279 279 278 278 277 277 276 276 275

GFSMW_850_thetae_075.txt.gz
Theta_e
328 327 326 323 321 323 322 322 323 322 321 319 318 321 321 319 317 315 316 317 318 316 315 317 317 315 315 317 319 320 319 319 318 315 312 310 309 309 309 309 309 311 311
328 328 326 323 322 322 322 321 322 323 322 319 317 320 321 320 318 316 317 317 315 316 317 317 315 315 314 315 318 320 320 319 318 316 313 311 310 310 310 309 309 309 309
328 329 323 322 322 322 321 321 322 322 322 319 318 321 320 319 320 318 318 318 316 317 317 316 314 314 314 314 315 319 321 321 319 318 315 311 312 312 311 310 309 309 309
327 328 324 319 319 321 322 321 322 321 321 317 317 319 318 319 318 317 316 315 314 315 315 314 313 315 315 315 315 317 321 321 321 319 317 314 314 314 313 313 312 309 309
326 327 327 324 317 320 321 321 321 321 320 317 316 316 317 316 315 315 315 314 315 313 313 313 313 316 320 320 319 320 321 322 322 321 320 317 316 314 313 312 312 312 311
325 326 327 324 317 319 320 318 318 318 319 317 316 317 316 315 315 314 314 314 317 315 314 314 313 316 320 322 322 322 322 322 322 322 320 319 317 317 315 313 311 312 311
325 326 327 325 320 318 318 317 316 317 316 317 315 314 314 314 313 314 315 316 316 315 313 313 315 318 320 321 321 322 322 322 322 321 321 320 318 316 316 313 313 312 312
325 326 327 327 323 318 318 317 317 316 315 315 314 314 313 314 315 317 317 316 315 313 314 316 316 318 319 322 322 322 323 322 321 321 321 319 318 316 316 314 313 311 311
325 326 327 327 326 321 319 317 316 317 317 316 316 317 318 319 320 319 317 313 313 315 318 319 319 320 320 321 322 322 320 320 321 320 320 319 317 315 314 314 312 310 307
326 327 327 327 327 325 323 320 318 318 317 317 318 318 318 318 319 319 317 316 319 320 321 321 321 320 321 321 322 322 322 322 321 321 320 317 316 313 313 312 310 307 306
326 326 327 327 327 326 325 324 322 321 320 319 319 320 320 320 319 318 318 320 322 323 324 323 321 321 320 320 321 320 323 321 322 320 319 316 314 313 311 310 308 307 305
324 325 326 327 326 326 325 326 325 324 322 321 321 321 321 321 321 322 322 323 323 323 322 320 320 319 319 320 317 321 322 321 321 319 318 314 312 311 309 307 305 304 304
324 325 326 326 326 326 326 326 325 325 324 323 324 324 323 323 323 323 323 323 323 323 320 318 320 321 319 323 321 321 322 321 318 317 314 312 310 308 307 305 304 303 301
324 324 325 325 325 325 326 326 326 325 325 325 324 325 325 324 325 325 325 324 323 322 320 321 323 321 320 320 320 322 321 319 317 314 311 310 308 305 304 304 302 301 300
321 323 324 323 323 323 324 325 326 326 326 326 325 325 325 325 325 326 327 327 326 323 321 324 320 321 322 322 322 320 319 317 313 310 309 306 305 304 303 302 300 298 297
320 321 324 322 322 321 321 323 325 327 328 328 327 327 327 328 325 324 324 328 325 326 325 322 322 322 320 319 319 318 314 311 309 308 306 305 303 303 301 298 296 296 296
319 320 321 321 322 322 321 322 325 327 328 328 329 328 328 324 322 323 324 323 322 323 322 322 320 319 318 317 315 313 310 308 307 304 303 303 301 298 297 296 295 294 293
319 319 321 322 322 323 324 324 326 328 329 329 329 328 327 324 324 325 324 323 322 321 320 319 318 317 314 312 310 308 307 305 303 302 300 298 295 294 292 291 290 289 287
320 320 320 322 323 324 324 326 327 328 329 328 326 324 323 323 322 322 321 320 319 319 317 315 314 312 310 308 306 304 303 302 300 297 294 293 292 291 290 287 285 284 284
320 320 320 321 322 323 325 325 326 327 326 324 324 324 323 322 321 320 319 317 315 314 312 310 309 307 306 303 302 302 300 299 296 294 293 291 290 286 284 284 283 284 284
320 321 321 322 323 324 325 326 326 326 324 323 322 319 318 318 317 316 314 312 311 309 308 307 305 303 301 301 300 299 297 295 294 292 291 287 285 283 283 283 282 282 281
321 322 322 322 324 325 326 326 325 323 319 318 316 316 315 313 312 310 309 308 307 306 304 303 302 300 299 298 297 296 294 293 291 289 286 283 282 282 281 281 280 280 280
321 321 323 324 326 325 324 323 320 317 316 314 313 311 310 308 307 307 306 304 303 302 301 300 299 297 296 295 293 293 291 289 288 286 283 281 281 280 280 280 280 279 279
322 323 324 323 323 321 319 317 316 314 313 311 309 306 305 304 303 303 302 301 300 299 299 298 297 295 294 293 290 289 288 287 286 282 281 280 280 279 279 279 279 279 278
322 322 322 321 319 318 316 314 313 311 309 307 306 305 303 302 300 300 300 299 298 296 296 294 293 292 291 289 288 287 286 284 281 280 280 279 279 279 279 278 278 277 277
320 320 319 318 316 315 314 312 311 310 309 307 305 304 303 301 300 299 297 294 293 291 291 289 289 288 287 286 284 282 281 280 280 279 278 278 278 277 277 277 276 276 275

GFSMW_850_thetae_078.txt.gz
Theta_e
326 326 325 323 322 323 321 322 323 322 320 320 320 319 318 319 318 316 315 318 316 315 316 316 316 316 317 318 319 319 319 319 318 317 317 315 313 314 314 311 310 309 309
328 327 326 325 322 322 321 322 322 322 321 320 320 322 320 318 317 316 316 320 315 315 315 315 315 316 317 317 318 319 319 319 318 318 318 316 315 316 315 312 311 310 309
328 328 326 326 322 322 322 322 322 322 321 320 319 319 320 320 317 318 319 318 317 317 316 315 317 318 318 317 317 316 318 319 319 319 318 315 316 318 316 314 315 312 309
328 328 327 327 321 321 321 321 322 322 322 320 317 318 319 320 319 318 315 314 316 316 316 316 318 319 319 316 315 315 315 318 320 319 319 318 319 317 315 316 316 315 314
326 327 327 327 321 319 321 321 322 322 322 322 320 318 320 319 317 317 316 315 317 316 316 315 316 316 317 316 317 317 316 316 318 321 321 320 319 319 315 313 316 315 315
323 325 326 327 322 318 321 321 321 321 321 321 321 318 317 318 318 315 317 317 317 315 314 314 315 315 316 316 316 320 321 320 320 321 321 321 319 319 319 317 315 316 314
322 323 325 327 324 318 318 320 321 321 321 320 320 317 316 316 317 316 316 315 315 314 315 316 315 314 314 315 315 319 321 322 322 322 322 321 320 321 318 317 316 315 313
321 323 324 326 326 323 317 316 316 319 319 320 320 317 316 317 318 317 315 314 314 314 313 315 316 316 314 313 314 317 320 321 321 322 322 321 320 321 319 317 316 314 313
322 323 324 325 326 325 321 316 315 316 317 317 320 319 315 316 317 316 315 314 314 314 316 318 316 315 317 319 318 319 320 320 321 318 318 321 321 320 319 316 314 314 311
322 323 324 325 326 326 324 319 316 315 316 317 317 318 316 316 315 315 314 313 313 314 317 317 314 316 319 320 321 321 321 321 321 322 320 321 321 319 317 315 313 312 311
323 323 324 325 326 326 326 324 320 317 316 316 316 316 316 315 315 315 315 316 317 317 315 314 317 320 323 323 322 321 320 319 321 321 320 321 319 318 316 314 312 311 310
322 323 324 325 326 326 326 326 323 320 317 316 316 315 315 316 316 315 315 316 315 314 316 319 320 321 321 321 323 321 321 319 319 318 321 319 318 317 315 313 312 310 307
322 323 324 324 325 326 326 326 325 323 320 318 318 318 317 320 321 320 319 319 319 319 319 321 321 322 322 320 319 320 319 318 319 319 320 318 317 314 313 311 309 307 305
322 323 323 324 324 325 325 325 325 324 324 323 320 320 321 322 321 322 321 321 321 321 322 322 323 322 322 320 319 321 321 319 321 321 317 316 315 313 311 308 307 305 303
321 323 323 322 322 322 323 323 324 325 324 323 323 323 323 323 324 323 323 323 323 323 324 324 322 321 322 320 321 321 319 319 320 315 313 312 311 308 308 306 304 303 301
321 322 322 322 322 320 320 321 322 323 324 324 324 324 323 323 324 323 323 323 323 324 324 325 325 323 322 322 321 320 319 317 315 313 312 310 306 307 303 304 302 301 298
319 320 321 321 321 321 321 321 322 323 324 325 325 325 324 324 324 323 323 325 326 324 322 323 323 324 323 321 320 319 317 314 312 310 308 308 305 304 302 301 298 296 295
320 320 319 320 321 322 322 321 322 323 324 325 326 326 326 325 325 325 325 322 323 322 321 321 321 321 320 318 317 316 313 311 308 307 305 303 302 301 298 295 293 291 290
320 320 321 320 319 322 322 322 323 324 325 327 327 327 326 326 325 324 322 323 323 322 321 320 319 317 315 313 311 310 308 307 305 302 301 300 297 294 293 291 290 287 285
317 318 319 319 317 321 323 323 324 325 326 327 326 326 324 323 323 321 321 322 320 318 318 315 312 310 310 306 305 305 304 303 302 300 297 294 293 291 290 287 284 284 284
317 318 319 319 318 322 323 323 324 325 324 323 323 323 322 321 320 319 317 316 316 314 313 311 309 307 306 304 302 301 300 299 297 295 294 292 290 287 285 284 283 283 282
318 318 320 320 321 322 322 324 324 322 322 322 320 319 317 316 316 314 314 313 312 311 309 307 306 303 302 301 300 299 297 296 294 293 291 289 286 284 283 282 282 281 281
319 322 322 322 323 324 324 324 323 322 320 317 314 315 314 312 311 310 310 309 308 307 306 304 303 302 300 298 297 296 295 293 292 290 288 286 283 282 281 281 280 280 280
321 322 322 323 323 323 323 322 320 318 315 314 313 311 310 309 308 307 306 305 304 303 302 301 300 298 297 295 294 292 292 290 289 287 285 282 281 280 280 280 279 279 279
322 321 320 320 319 319 318 316 315 314 312 310 308 307 306 305 304 303 302 301 301 300 299 299 298 296 294 293 291 290 289 288 285 282 281 280 280 279 279 279 278 278 278
321 319 318 318 318 316 315 312 312 311 310 308 307 306 305 303 302 301 300 299 297 296 295 293 292 291 291 289 288 287 284 282 281 281 280 280 279 278 277 277 277 277 276

GFSMW_850_thetae_081.txt.gz
Theta_e
326 325 324 325 322 320 322 323 322 322 321 320 321 322 320 316 320 316 315 316 316 316 317 317 317 318 318 318 318 317 317 315 317 317 316 315 313 312 310 310 310 309 309
327 326 325 324 323 322 320 322 323 323 322 320 320 321 322 318 321 318 316 316 315 316 317 317 317 317 317 317 318 318 317 316 317 317 317 315 316 316 315 315 313 311 309
327 326 325 324 323 321 320 322 322 322 322 320 320 320 321 320 319 315 315 315 317 316 315 316 316 315 315 316 318 318 318 319 319 318 318 317 318 318 318 317 316 315 313
328 327 327 325 325 322 321 322 322 322 322 321 320 321 320 320 318 316 315 314 315 318 315 315 315 314 315 317 317 318 318 318 318 319 319 319 319 318 318 318 318 317 316
324 327 327 326 325 321 322 322 322 322 321 321 321 320 320 318 318 317 315 315 316 318 315 316 316 315 317 318 318 319 318 318 318 318 318 319 319 319 318 318 319 318 317
322 324 327 326 326 322 321 321 321 322 322 322 321 320 320 319 317 316 315 316 319 317 317 316 316 316 317 316 316 318 318 319 320 319 319 319 319 320 319 318 318 319 317
322 323 325 326 327 324 318 321 321 322 322 322 322 320 319 319 318 316 317 319 317 317 315 316 316 315 315 315 316 317 317 318 319 320 321 321 321 321 319 319 318 317 316
320 322 323 324 325 325 319 320 320 321 321 322 322 321 318 319 320 319 318 317 315 314 314 316 316 314 316 317 317 317 317 317 318 319 320 321 321 317 319 319 318 315 316
320 321 323 323 325 325 322 316 319 320 320 321 321 321 321 319 319 318 319 317 317 316 315 316 315 315 315 318 318 317 318 319 319 319 320 321 321 318 318 319 319 316 315
320 321 321 323 324 326 324 320 316 316 317 319 320 321 321 319 317 316 316 317 316 316 315 315 315 314 315 318 318 316 318 320 320 321 321 321 321 320 319 318 315 316 315
320 322 322 323 324 325 326 324 320 315 314 316 317 319 320 320 317 315 315 315 315 315 315 314 314 313 314 319 318 317 320 320 321 320 317 319 320 320 319 319 316 315 313
321 322 322 323 324 325 326 325 323 321 317 314 315 316 316 318 318 317 317 316 315 315 314 314 313 315 318 318 319 320 320 321 322 321 320 318 318 319 318 317 315 314 312
320 321 323 324 324 324 325 326 326 324 323 319 316 315 315 315 315 318 317 315 315 315 315 314 315 316 317 318 319 320 321 320 321 320 319 319 320 319 317 315 313 312 311
318 321 322 323 324 325 325 325 326 326 324 322 319 318 318 315 315 319 317 317 316 315 316 317 317 318 320 321 321 322 322 321 319 321 319 318 319 319 315 312 312 310 309
318 320 322 322 323 323 324 325 325 325 325 325 323 322 321 322 318 318 318 317 319 320 321 321 322 322 322 322 322 322 322 320 321 319 318 318 317 316 313 311 309 308 305
319 320 321 322 322 322 322 323 323 323 324 324 324 324 322 320 321 322 322 322 321 321 322 323 323 323 323 322 323 322 321 321 318 319 318 314 313 311 310 308 305 305 302
320 320 321 321 321 321 321 321 321 323 323 323 323 323 323 322 322 321 321 322 322 322 323 322 322 322 321 323 321 321 319 318 318 314 312 311 309 306 304 303 301 300 299
319 320 320 320 321 320 321 322 321 322 323 323 323 323 323 323 323 323 322 322 323 322 322 321 322 322 320 319 320 319 318 316 312 309 307 307 304 303 302 300 298 296 294
315 317 320 321 321 320 319 321 322 322 322 323 323 324 324 323 322 321 322 322 323 321 321 320 320 319 317 316 314 313 313 310 308 305 303 301 300 299 298 295 293 291 289
317 317 317 319 319 318 318 321 322 322 323 324 325 325 325 324 323 322 322 321 321 319 318 318 315 314 312 308 307 307 307 306 304 302 300 298 297 295 293 291 287 285 284
317 317 316 316 316 317 319 322 323 323 324 324 323 323 322 322 322 322 320 318 319 317 314 313 311 309 307 305 303 302 302 302 301 298 296 295 294 292 289 286 284 283 283
318 318 318 318 317 319 320 323 323 322 323 324 322 322 322 321 320 318 317 315 314 312 310 309 307 304 303 302 300 300 299 298 297 295 293 292 290 287 285 283 282 282 282
318 317 319 319 318 319 319 320 320 321 322 322 321 319 318 316 315 314 312 311 310 309 308 306 304 302 300 299 298 297 297 296 294 292 291 289 286 284 282 282 282 281 281
317 318 317 317 317 318 319 320 319 318 318 317 315 314 313 312 310 309 308 307 307 305 304 302 302 300 299 297 296 295 293 292 291 290 288 285 283 282 281 280 280 279 279
316 316 318 317 316 317 316 315 314 314 313 313 311 310 308 307 306 305 304 304 303 302 301 300 299 297 296 294 292 291 291 290 289 287 283 282 282 281 280 279 278 278 277
317 316 318 317 315 314 313 312 312 311 311 310 308 307 306 304 303 302 300 298 298 298 297 296 294 293 291 290 290 288 287 284 283 283 283 283 281 280 279 278 277 277 276

GFSMW_850_thetae_084.txt.gz
Theta_e
328 329 325 323 323 322 323 324 323 322 321 322 322 321 318 314 314 313 311 312 316 309 314 317 317 317 317 316 317 318 316 312 311 311 311 311 311 311 310 310 312 314 313
329 329 326 323 324 322 322 323 323 323 321 321 322 321 320 315 315 314 314 315 311 310 316 316 317 317 318 319 319 318 318 317 315 315 317 317 315 314 315 312 312 312 311
330 329 327 325 324 323 322 322 323 322 322 321 321 322 320 316 315 314 314 315 315 311 316 316 317 317 319 319 318 318 319 318 316 316 319 321 321 320 316 314 314 314 314
328 330 328 326 325 323 321 321 323 322 322 321 321 321 321 316 318 316 314 316 316 316 316 316 317 316 317 318 317 317 318 319 319 317 317 319 320 320 321 318 317 317 317
328 330 329 327 326 324 321 322 322 322 322 321 321 321 320 317 318 319 316 316 316 317 316 316 316 316 316 316 316 316 317 318 320 320 319 318 318 318 319 321 320 319 318
327 330 329 327 327 324 322 321 322 321 322 322 321 321 321 319 319 320 317 315 315 317 318 318 315 315 315 315 315 317 318 319 320 320 321 320 320 320 320 320 320 320 319
326 329 330 328 326 323 321 322 322 322 322 322 321 321 320 320 318 319 316 315 316 317 320 318 316 315 316 315 316 318 318 318 319 319 320 321 321 321 321 319 320 319 317
326 328 329 329 326 324 322 320 321 325 323 322 322 321 320 322 320 319 316 316 317 317 320 319 317 317 317 317 318 317 317 318 317 318 320 320 320 319 319 321 320 318 317
325 327 329 329 327 325 324 318 320 322 322 322 322 322 321 321 321 319 318 317 319 319 320 319 317 316 317 317 315 316 317 318 319 319 319 321 319 320 320 321 320 317 315
324 327 328 329 328 326 324 320 319 321 323 321 321 321 321 321 322 322 320 319 320 320 321 320 317 318 317 316 315 315 316 320 320 317 319 320 321 321 320 320 321 318 318
324 326 327 328 328 327 325 323 319 323 323 323 323 322 322 321 321 321 321 320 320 321 321 319 318 317 316 316 316 317 316 319 320 318 319 319 320 320 320 318 318 317 317
324 326 327 327 327 328 326 324 323 322 323 323 323 322 322 321 321 321 321 319 318 319 318 317 317 317 317 316 318 320 319 318 319 319 320 320 321 321 319 318 317 316 317
323 326 327 327 327 327 327 326 324 322 322 322 321 321 320 320 320 320 320 319 318 317 320 320 319 316 316 316 316 315 315 317 319 319 321 320 320 320 320 319 319 319 316
322 325 327 327 327 327 327 326 325 324 323 321 320 317 316 317 319 320 321 320 320 320 320 320 319 317 317 315 315 315 317 320 320 321 321 320 320 320 319 318 317 316 314
320 322 326 327 327 327 327 326 326 324 324 322 321 320 317 316 315 316 317 319 318 319 320 320 320 320 319 320 321 320 321 322 322 321 321 320 320 318 318 316 314 312 310
320 320 321 325 327 327 327 326 325 325 325 324 323 322 321 319 320 317 318 319 319 319 320 319 318 320 322 323 323 323 323 322 322 322 320 319 318 315 314 312 310 308 308
319 319 319 321 325 324 321 324 324 324 324 325 324 324 323 322 320 320 320 321 321 319 319 320 321 322 323 323 322 322 322 321 320 319 318 316 314 311 309 307 304 303 302
317 319 317 319 320 324 322 323 323 322 323 323 323 323 323 323 322 321 321 321 320 320 319 321 323 322 323 322 322 321 319 318 316 314 313 309 307 305 304 303 302 301 300
317 318 318 316 318 321 322 321 323 322 322 323 323 323 323 322 322 323 323 322 322 322 323 323 323 321 321 320 319 318 316 313 311 308 306 304 303 302 300 299 299 298 296
318 318 318 316 316 317 318 320 322 324 323 323 323 323 323 323 323 323 322 322 323 323 322 321 319 318 317 315 313 312 310 309 307 304 302 300 299 299 298 296 293 290 289
319 318 317 316 317 317 317 320 321 323 322 322 322 323 323 323 323 323 323 322 321 320 319 317 315 312 309 308 305 304 304 304 303 300 299 297 296 294 292 289 288 286 285
319 317 316 317 316 319 320 320 320 320 321 321 322 323 323 323 322 321 321 319 318 317 314 311 308 305 303 302 301 300 300 300 299 298 296 294 292 290 287 286 284 283 284
319 316 315 316 317 317 317 318 319 320 321 322 321 321 321 320 318 318 317 316 314 311 309 307 305 303 300 300 299 299 298 298 296 294 293 292 291 288 286 286 284 282 282
320 316 315 316 316 317 318 319 319 320 320 319 318 316 316 314 313 312 310 309 308 307 305 304 302 300 298 297 295 295 294 292 292 291 290 288 285 282 281 281 281 280 280
319 317 313 314 315 314 315 317 317 316 316 314 312 310 310 309 307 306 305 304 303 303 303 301 299 297 295 293 292 291 290 290 289 287 284 282 281 281 281 280 279 278 278
316 319 316 313 313 313 314 313 314 314 314 313 310 308 307 305 303 302 300 298 297 296 296 295 295 293 292 290 290 289 288 286 285 283 282 281 280 280 279 279 278 277 277

GFSMW_850_thetae_087.txt.gz
Theta_e
328 329 330 328 328 327 327 324 324 324 322 323 322 320 318 315 314 315 314 312 313 315 315 315 313 315 313 311 310 314 314 313 314 313 314 314 315 315 316 317 317 316 317
328 330 330 328 328 327 326 324 324 323 321 323 321 318 316 314 313 313 312 313 312 314 311 315 316 316 313 313 313 316 315 314 313 315 317 317 316 315 315 315 314 315 317
329 330 331 328 327 327 326 324 323 322 323 322 322 320 316 314 314 314 313 312 312 313 314 317 315 315 317 317 318 318 318 318 317 318 321 322 322 321 317 316 315 315 315
328 330 331 329 328 328 326 322 323 323 322 322 322 320 317 315 314 314 309 312 312 313 315 316 317 315 318 319 319 320 321 320 320 319 319 320 322 322 321 320 318 316 315
327 330 332 330 330 329 325 323 323 323 322 322 322 321 317 314 313 313 311 314 313 312 309 314 317 318 319 319 320 321 319 321 321 321 320 320 320 320 320 320 320 319 318
326 329 331 331 330 329 326 323 323 323 322 322 321 321 321 316 315 314 314 315 315 314 313 313 316 318 319 321 321 318 318 318 320 320 321 321 321 320 320 320 321 321 320
325 328 332 331 330 329 326 323 322 323 323 323 321 321 321 319 316 315 315 315 314 316 316 317 319 320 320 321 318 316 320 318 318 319 321 321 321 321 321 321 320 321 321
325 327 331 331 330 329 325 324 323 322 322 323 322 321 321 320 318 321 317 315 315 316 317 318 319 320 320 320 319 319 321 321 320 318 318 320 320 320 320 321 321 320 320
324 327 329 332 331 330 327 324 325 322 323 322 322 322 321 321 319 318 319 317 316 316 317 319 319 321 321 320 318 320 319 320 320 319 319 321 321 321 321 321 320 319 319
323 326 328 331 331 329 328 326 323 323 322 323 322 322 322 322 321 320 318 318 317 316 317 317 320 320 321 321 321 321 320 321 319 320 319 321 320 321 321 321 321 320 320
323 325 328 330 331 330 329 326 325 324 325 323 323 323 322 322 322 322 321 320 318 317 318 319 319 321 322 321 321 320 320 321 320 320 320 321 322 321 320 320 320 319 320
325 325 328 329 331 330 329 327 325 324 325 325 323 323 323 322 323 323 322 321 320 319 320 320 321 322 322 321 321 321 321 320 321 320 321 321 321 321 320 320 320 320 319
326 327 328 329 330 330 330 328 326 325 325 326 325 324 323 324 323 323 322 323 322 321 321 321 321 321 321 321 321 320 321 320 321 321 320 320 320 320 321 321 320 320 319
323 326 328 328 329 330 330 329 328 327 325 325 325 325 325 324 324 324 323 323 323 322 322 321 322 322 321 321 321 321 321 320 320 320 320 318 320 321 322 320 320 319 318
321 323 326 328 328 329 330 330 329 328 327 326 325 325 324 325 325 325 324 324 323 323 323 323 322 322 322 321 321 321 320 320 320 320 321 321 321 321 321 320 319 319 317
321 322 322 326 328 328 329 330 329 328 328 326 326 325 325 325 325 324 324 324 323 323 322 322 322 322 322 321 320 321 321 323 323 322 321 321 320 320 320 320 317 316 312
321 321 321 321 324 328 329 329 329 329 328 327 327 326 325 325 324 324 324 324 323 322 321 321 321 322 322 323 322 323 323 322 322 321 319 320 318 317 315 314 310 308 305
321 321 320 320 321 322 328 329 329 328 328 327 327 326 326 325 324 324 323 322 322 321 321 321 321 321 322 322 322 323 322 322 321 319 317 314 312 310 308 305 304 302 301
322 322 321 321 319 320 322 327 328 328 328 328 327 327 326 325 325 324 323 323 323 323 321 321 322 321 321 322 322 322 320 319 317 313 310 307 305 303 302 301 301 300 299
322 322 322 320 319 319 320 324 327 328 327 327 326 326 326 325 325 325 324 324 324 323 321 319 320 320 319 319 319 318 316 315 311 307 305 302 301 300 300 299 297 294 293
320 321 321 321 321 321 320 320 324 326 327 326 326 325 325 325 325 324 323 323 322 320 319 318 317 316 314 313 311 310 310 308 306 303 301 299 298 297 296 294 291 288 287
319 319 320 318 318 320 320 323 323 325 325 325 325 324 323 323 323 321 320 319 319 319 318 316 315 311 308 305 304 303 303 302 302 300 298 296 295 293 292 290 290 289 285
315 316 319 317 317 318 320 322 322 321 322 323 322 321 320 319 319 319 318 317 315 316 313 309 308 305 302 301 300 299 299 299 297 296 294 293 293 292 291 288 284 283 282
312 315 316 317 315 316 316 317 317 317 317 318 317 317 315 314 313 312 315 312 308 308 307 304 302 298 297 296 296 296 295 294 293 292 292 290 287 284 283 283 282 281 281
310 309 310 317 312 310 310 310 311 315 316 315 313 312 310 310 309 307 305 304 306 304 302 299 298 296 294 292 292 292 292 291 290 288 285 284 283 283 282 282 281 280 279
305 305 303 305 306 306 306 306 308 310 312 310 308 307 307 305 304 303 301 298 296 296 296 294 295 292 292 290 290 291 289 287 285 284 283 282 281 281 280 280 279 278 278

GFSMW_850_thetae_090.txt.gz
Theta_e
328 330 330 330 329 329 328 325 325 323 324 323 323 323 323 323 323 323 323 322 323 321 316 319 319 318 322 317 316 316 316 314 314 316 316 316 317 317 317 317 318 318 318
327 330 331 330 329 329 327 323 323 323 323 323 323 322 321 320 320 318 318 320 318 315 315 319 318 318 314 312 315 315 314 314 315 315 314 315 315 316 317 317 317 317 317
327 330 331 331 330 329 327 324 323 323 322 322 321 321 319 319 320 320 320 320 317 315 314 314 314 313 314 315 312 314 315 313 314 313 315 318 319 317 316 316 315 315 316
326 329 331 331 329 329 326 324 323 322 322 322 321 320 318 316 315 316 316 314 313 314 315 313 313 312 316 315 311 314 314 316 316 316 319 321 322 321 320 319 319 316 315
323 330 331 332 330 329 326 324 325 322 323 322 320 317 315 315 315 314 313 313 313 315 315 316 315 315 316 314 316 318 319 319 319 319 319 319 320 320 321 321 320 319 319
324 329 331 332 331 329 327 324 322 322 322 322 321 318 317 317 315 312 313 313 312 313 314 317 317 315 315 317 318 319 319 320 321 321 321 320 318 320 320 319 318 320 320
324 327 333 332 331 331 328 324 323 323 322 321 321 321 320 318 317 313 311 310 312 312 313 314 315 318 317 319 320 319 319 320 318 318 319 319 320 320 321 321 320 321 321
325 327 332 332 331 331 328 325 324 324 322 321 321 320 321 319 317 314 312 311 312 311 312 313 315 315 319 319 319 320 319 319 315 315 316 315 315 316 317 318 320 321 321
325 326 331 332 331 331 329 326 324 322 322 320 321 321 321 321 318 314 313 311 312 312 312 314 313 318 318 318 318 318 317 316 314 315 316 317 316 316 317 320 320 321 322
324 325 328 333 331 331 329 326 323 322 323 323 321 321 321 321 321 318 313 313 312 313 314 315 315 317 318 319 318 318 316 316 316 317 318 317 317 317 317 319 319 319 320
324 325 327 333 332 331 330 327 324 323 324 322 322 322 321 322 321 320 318 316 314 315 315 316 317 319 319 319 320 320 318 317 318 318 318 318 317 317 318 318 318 319 318
325 325 327 333 332 331 330 328 325 323 322 324 322 322 321 322 322 321 320 320 320 316 316 316 317 318 320 319 319 320 319 319 318 319 319 318 318 318 318 318 318 319 319
327 326 327 331 333 332 330 329 327 324 325 323 323 324 323 323 323 323 322 321 320 318 316 316 316 316 319 320 318 319 320 321 319 319 320 320 319 319 319 318 319 319 320
324 327 327 329 332 332 331 330 328 326 325 326 325 322 323 323 322 323 323 323 323 321 320 319 318 318 319 320 320 320 321 321 320 320 320 321 321 320 320 320 319 320 320
322 324 327 328 330 332 331 331 329 327 326 326 327 326 323 323 322 322 323 324 325 323 322 322 321 321 321 321 322 322 322 321 321 321 321 321 321 320 320 320 321 320 318
321 322 322 326 328 330 331 331 330 329 326 326 327 327 327 326 325 324 324 323 323 324 323 323 323 322 322 323 322 321 322 322 321 321 321 321 321 321 321 320 318 316 314
321 321 321 322 324 328 329 331 331 330 329 327 327 327 326 327 326 326 326 325 324 323 323 323 323 323 322 322 322 323 322 322 321 320 321 322 321 321 319 317 312 311 307
322 322 322 322 321 322 328 329 330 331 330 329 327 327 327 327 326 326 326 326 325 324 324 323 323 324 324 323 323 322 322 321 322 322 321 320 318 316 313 309 307 304 302
323 323 322 322 320 320 321 327 329 330 330 329 328 328 327 326 326 326 326 326 325 325 325 324 323 323 323 322 322 321 322 321 321 319 317 315 311 307 305 303 302 300 300
322 322 323 322 322 322 320 321 327 329 329 330 329 328 328 327 326 325 325 325 324 325 324 323 323 321 321 321 321 320 321 320 316 313 308 305 303 300 300 299 299 299 297
321 320 320 319 319 320 322 321 323 328 328 328 329 328 328 327 327 326 325 325 324 323 323 322 321 320 319 318 318 317 313 311 309 304 301 299 299 299 298 297 293 291 291
317 316 316 317 317 317 321 323 323 326 327 327 327 327 327 327 326 326 325 324 323 322 322 320 317 312 311 307 305 304 304 302 302 298 297 296 295 294 293 292 291 290 289
312 314 314 313 314 314 317 321 319 320 322 326 326 326 325 324 323 325 324 323 320 319 317 313 310 305 300 299 298 298 297 297 298 296 293 292 291 290 289 287 286 285 285
312 313 313 312 310 309 311 314 315 316 318 321 321 322 324 321 320 322 319 317 317 313 311 306 300 296 295 294 293 294 293 293 293 292 291 291 289 286 285 285 283 282 281
309 310 310 307 305 306 306 306 307 306 313 313 314 315 315 313 311 309 308 306 304 303 299 298 296 296 291 291 292 293 293 292 291 290 288 285 284 283 282 281 280 280 279
304 306 304 305 307 309 308 306 305 303 304 303 299 298 300 300 298 296 295 294 295 295 294 294 295 292 293 290 291 291 290 289 287 286 284 283 282 281 280 279 278 278 277

GFSMW_850_thetae_093.txt.gz
Theta_e
325 328 329 331 331 330 329 329 327 325 323 322 322 323 323 322 323 323 324 325 326 327 325 324 318 315 320 321 319 317 316 317 316 317 318 318 318 318 318 318 319 318 317
326 329 330 331 331 330 329 328 326 323 322 322 323 321 322 323 324 324 325 325 326 326 324 320 318 319 320 321 318 316 316 315 314 314 316 317 318 318 317 318 319 319 318
326 330 330 331 330 329 329 328 325 322 322 322 323 322 322 322 322 321 322 322 323 325 321 319 321 321 318 321 316 316 314 315 314 316 316 315 315 316 317 317 317 317 317
326 330 330 330 330 330 329 328 324 323 321 321 322 322 322 320 319 320 319 319 321 321 321 320 318 316 321 318 315 315 314 313 315 315 315 315 318 317 316 316 316 316 316
328 330 330 330 330 330 329 328 323 321 321 320 321 321 321 320 319 320 320 320 320 318 317 317 317 316 315 313 314 315 315 315 315 313 314 318 321 321 320 319 318 317 318
328 329 330 330 330 330 329 327 323 321 321 321 322 321 321 321 320 319 320 319 319 318 317 317 316 314 313 314 315 312 312 314 314 313 315 319 320 320 320 320 318 318 317
328 330 331 331 331 330 328 326 323 321 321 321 322 321 319 318 318 318 317 316 315 315 315 315 314 314 314 315 316 313 314 316 318 319 318 319 320 318 318 319 320 320 319
328 330 330 331 331 330 329 327 324 321 321 321 321 320 317 316 317 317 315 313 314 315 314 314 314 313 314 315 315 317 318 319 319 317 319 321 321 320 319 319 320 321 321
329 331 331 331 331 331 330 328 326 321 321 321 321 319 318 317 317 316 314 312 312 313 314 313 317 317 315 315 316 317 319 319 319 318 318 318 319 317 316 316 316 317 319
328 331 331 332 332 331 330 330 328 319 321 320 320 321 320 319 319 317 313 312 312 311 313 313 315 315 316 318 318 319 319 319 318 318 317 316 315 316 316 316 316 317 318
324 329 331 332 332 331 331 330 328 321 323 322 320 320 320 320 320 319 318 314 311 310 313 313 313 312 313 316 317 319 318 318 318 317 316 315 315 316 316 316 317 317 317
324 326 332 332 331 331 331 330 329 325 320 321 321 320 321 320 319 319 319 319 315 312 311 312 312 312 315 315 317 319 318 318 317 316 316 316 316 317 317 317 317 318 317
324 326 332 332 332 331 331 330 330 327 321 321 322 321 320 320 321 320 320 320 318 315 314 312 314 313 314 314 316 318 318 319 318 318 318 318 317 318 317 318 318 319 318
322 328 332 332 332 331 331 330 330 328 324 321 323 322 322 322 320 321 321 321 321 320 317 315 314 314 315 316 318 320 319 319 318 318 319 319 319 318 319 320 321 320 320
322 323 329 332 332 331 331 331 330 329 327 322 322 321 323 323 322 322 322 322 321 321 320 320 318 315 315 315 318 318 319 318 319 319 319 320 320 320 321 322 320 320 320
320 322 324 329 332 332 331 331 331 330 329 326 324 324 322 322 325 323 322 323 323 322 322 322 321 319 317 316 317 316 316 317 319 321 321 321 321 321 321 321 321 321 322
323 322 322 322 323 330 331 331 331 330 330 328 326 325 326 325 323 322 323 323 323 324 324 323 322 322 321 321 320 319 319 320 321 321 321 322 322 321 321 321 321 318 318
323 322 322 321 321 321 323 329 331 331 330 329 328 325 326 327 326 325 323 322 322 322 324 323 323 322 322 323 322 322 323 323 323 322 322 322 321 320 319 312 311 311 308
322 322 322 320 319 318 320 320 327 331 331 330 329 327 325 327 327 327 326 326 324 324 324 323 322 323 323 323 323 323 323 323 322 321 321 320 314 309 307 307 305 303 301
319 320 320 319 319 319 319 320 320 324 330 330 330 329 327 326 326 327 327 327 327 326 325 325 324 322 322 322 323 324 324 322 321 320 318 309 306 301 300 300 300 299 297
316 317 317 318 318 318 318 320 321 322 326 329 328 329 328 327 327 327 327 326 326 326 326 325 325 324 323 322 322 322 321 321 319 309 301 299 298 297 298 296 297 296 294
314 314 314 315 315 316 317 318 319 319 322 325 329 328 328 328 327 327 326 326 326 326 325 324 323 319 319 318 318 319 319 315 310 302 298 294 295 296 295 296 294 292 291
309 310 310 311 312 313 313 313 313 315 318 320 321 321 323 324 324 327 326 325 323 323 323 320 318 313 308 308 303 301 302 299 300 296 293 293 292 292 292 291 290 289 288
306 306 309 310 310 309 309 310 312 312 314 318 317 315 314 314 316 318 320 320 319 311 312 304 303 298 294 293 292 295 294 293 293 292 293 291 290 289 289 287 286 284 283
303 307 309 308 308 307 306 305 307 310 310 311 310 307 306 305 305 305 304 307 304 303 300 298 291 292 292 292 292 291 293 293 291 290 289 287 286 286 284 283 282 280 279
301 302 302 303 305 305 304 303 303 305 309 308 306 302 298 296 294 294 291 293 295 295 292 293 293 291 292 291 293 293 290 290 289 289 286 285 284 283 281 280 279 278 277

GFSMW_850_thetae_096.txt.gz
Theta_e
320 319 323 327 329 330 330 330 329 328 326 320 325 323 324 326 327 328 327 328 328 327 327 322 322 307 308 311 309 317 315 315 318 318 318 318 318 318 318 317 315 314 311
320 326 329 329 329 329 330 329 329 328 326 320 322 322 323 324 324 326 326 327 328 327 327 323 322 310 316 314 316 312 316 317 318 317 317 318 318 318 318 317 317 318 317
321 329 330 329 329 330 329 329 328 327 324 319 322 322 324 322 322 322 322 324 327 327 327 325 323 316 320 317 318 318 317 317 317 311 315 317 318 318 318 318 317 317 317
320 326 330 330 329 330 329 329 328 327 323 319 322 321 321 322 321 321 322 324 324 326 326 326 322 318 319 318 318 316 316 315 313 314 315 316 316 318 318 317 317 316 317
319 325 330 329 330 329 329 329 328 327 320 319 322 321 320 321 321 321 320 323 324 325 326 325 321 317 319 319 317 316 316 313 313 313 315 316 315 315 316 316 317 317 317
319 324 328 330 330 329 329 328 327 326 319 320 323 320 319 320 320 319 319 319 320 319 320 323 317 319 315 318 317 316 314 314 314 315 316 315 315 319 319 319 318 317 317
320 326 328 329 329 329 329 328 327 324 319 321 322 320 320 320 320 319 319 319 319 320 320 321 320 318 317 315 316 316 314 315 315 314 315 315 315 318 320 320 319 319 318
321 327 328 329 329 329 329 328 326 322 318 320 321 320 320 320 320 319 320 321 321 321 321 320 320 319 315 317 315 315 316 315 313 314 315 314 314 316 317 319 318 319 319
323 328 328 329 329 329 329 329 326 322 318 320 321 321 321 320 321 320 320 320 320 320 320 318 317 316 316 316 314 314 316 314 314 315 317 316 318 318 320 320 320 319 320
329 329 329 329 329 329 330 328 326 323 319 319 321 320 320 319 320 318 318 317 317 317 317 317 317 316 316 316 315 315 316 315 315 318 318 318 318 318 318 320 321 318 317
329 329 329 329 329 330 330 329 327 326 322 318 321 321 320 319 317 317 317 316 315 315 315 315 315 315 314 314 313 314 315 315 317 318 319 319 318 318 317 316 316 316 317
320 330 329 329 329 330 330 329 328 327 325 318 319 320 320 319 318 318 318 317 315 313 315 314 314 315 317 315 314 315 315 316 317 318 319 318 318 317 316 315 316 316 317
319 322 330 330 330 330 330 329 329 327 326 320 318 320 320 320 319 319 319 318 317 313 312 312 313 313 316 316 316 316 317 317 318 318 318 318 317 317 316 316 317 317 317
320 325 330 330 330 330 330 330 330 329 327 324 318 321 320 320 319 320 320 319 319 318 315 313 311 313 313 313 313 312 313 316 317 318 318 318 318 318 318 317 318 318 319
320 320 330 330 330 330 330 330 330 330 328 326 321 318 322 320 320 320 319 319 319 319 319 317 314 311 312 313 312 312 313 314 314 317 318 318 318 318 318 318 319 320 320
322 322 329 330 330 330 330 330 330 330 329 328 325 321 318 323 321 320 320 319 320 320 320 320 319 316 314 313 312 313 314 315 317 319 319 318 318 318 319 319 320 320 320
320 321 320 323 328 329 329 329 329 328 328 328 327 325 320 319 320 321 320 320 319 320 321 321 321 320 319 319 318 315 314 314 315 315 317 318 318 317 321 320 320 320 321
317 318 319 320 320 322 326 328 329 328 329 328 327 326 325 322 321 320 321 321 321 320 320 321 322 322 322 321 321 320 318 316 315 315 316 316 318 320 321 321 320 319 317
314 314 315 316 317 318 320 321 326 329 328 328 327 326 326 326 325 324 323 322 322 323 322 323 323 323 322 322 321 321 321 320 319 319 319 320 320 319 318 317 313 312 305
315 316 316 316 316 316 317 319 320 324 327 326 326 325 325 326 326 325 326 326 324 323 322 322 323 324 324 324 323 322 322 323 322 321 319 318 317 310 308 305 302 302 297
311 313 315 316 316 317 317 316 318 319 320 323 325 326 326 325 326 326 326 327 326 325 324 323 323 323 324 324 324 323 323 323 322 317 311 310 305 303 299 298 297 298 295
309 311 312 312 313 314 313 313 314 315 315 319 319 322 326 326 325 326 326 326 327 326 326 325 324 322 320 319 320 321 320 318 314 304 297 291 292 294 295 295 295 294 292
306 307 307 308 311 312 312 312 312 312 314 316 317 318 317 320 323 323 324 325 324 324 322 320 318 314 310 309 309 306 306 304 301 294 292 292 293 294 294 292 291 291 288
303 305 306 308 308 307 307 305 305 307 309 313 315 314 315 315 314 312 311 309 310 313 317 312 307 304 299 298 295 296 294 294 294 294 294 294 293 294 291 289 288 287 285
302 303 305 305 303 303 306 306 304 305 307 307 305 309 312 311 309 306 301 300 297 294 296 294 295 295 293 293 293 294 295 296 295 293 290 290 288 288 287 285 284 282 280
298 300 301 301 301 301 304 303 304 305 305 303 301 297 296 299 303 303 299 296 294 294 292 293 293 292 293 292 292 292 291 292 291 290 288 286 285 284 282 281 279 278 277

GFSMW_850_thetae_102.txt.gz
Theta_e
316 317 317 318 319 317 317 321 327 328 329 330 329 326 324 325 324 324 324 327 328 327 327 326 326 324 323 319 316 322 320 319 320 320 319 318 317 317 314 311 310 309 308
316 316 316 317 318 318 318 320 325 328 329 330 329 327 324 325 323 324 324 325 326 325 325 326 324 324 319 316 319 320 321 319 320 320 319 317 317 316 315 312 311 310 309
317 319 318 317 318 319 318 318 324 328 329 330 328 326 322 321 321 323 323 324 324 324 326 326 325 323 322 315 314 320 321 319 320 320 319 317 317 317 316 313 314 313 310
321 320 319 317 318 320 320 318 326 328 330 329 328 326 322 319 319 321 323 324 324 325 327 325 325 324 320 314 310 315 321 319 319 319 318 318 317 317 316 317 317 317 316
319 320 318 318 318 321 321 321 326 330 330 329 328 326 321 318 320 321 323 323 326 324 326 324 325 324 320 313 310 315 319 318 319 319 318 315 313 314 314 315 316 317 316
318 319 320 317 318 321 322 324 328 330 329 328 327 325 320 318 320 321 321 321 322 324 323 325 326 323 320 310 312 314 317 318 319 319 318 318 313 314 314 315 315 315 314
317 318 319 320 319 321 322 326 329 329 328 327 326 324 319 319 321 320 320 320 321 322 322 323 324 325 322 319 310 311 316 318 319 319 318 314 312 314 315 315 314 315 316
317 318 318 321 320 322 323 326 328 329 328 327 326 322 318 320 320 320 319 319 319 320 321 322 323 323 321 320 311 308 316 315 317 317 316 315 312 313 314 314 315 318 319
316 317 319 324 321 321 323 324 327 328 328 327 326 320 318 320 319 319 319 319 320 319 319 321 322 322 321 316 313 310 311 313 315 313 315 314 312 314 315 315 316 317 318
316 317 318 322 324 324 324 324 326 328 328 327 325 319 318 320 320 320 320 320 319 319 319 320 320 321 318 317 313 312 312 313 312 315 314 313 315 315 315 315 315 315 316
315 316 320 321 325 324 323 323 324 327 328 327 325 317 320 320 320 320 320 320 319 319 319 319 319 318 316 316 314 316 315 313 314 314 313 313 315 315 314 314 314 315 317
315 318 320 322 326 325 324 325 324 326 327 327 324 316 320 320 320 320 320 320 321 320 319 319 318 317 317 316 317 315 315 314 314 314 313 313 314 314 314 315 317 317 318
316 319 322 323 326 326 325 324 324 324 325 326 323 317 319 320 321 320 320 320 320 320 320 320 318 317 317 318 317 315 314 315 315 314 313 314 315 315 315 315 317 318 317
317 318 318 325 326 325 324 325 325 324 325 324 322 318 318 320 320 320 320 320 319 318 318 317 317 319 317 318 316 315 316 315 315 314 314 314 315 315 315 316 317 316 318
316 313 316 318 323 324 325 323 325 325 325 325 323 321 318 318 320 320 319 319 319 317 318 318 316 315 317 317 317 317 316 316 316 315 314 314 314 314 315 316 317 318 318
312 310 310 316 319 320 323 325 326 326 324 325 323 324 321 319 319 319 319 319 318 317 317 317 317 316 314 315 316 316 316 316 316 316 315 315 314 314 315 317 314 315 318
309 307 306 311 314 318 322 322 324 325 325 324 323 323 323 321 319 319 319 319 318 318 318 318 317 317 316 315 314 314 314 314 314 315 315 314 315 316 315 313 312 312 314
305 305 305 307 309 314 320 322 323 324 325 325 324 324 324 323 322 320 319 318 317 318 318 318 318 317 317 316 315 315 313 313 312 312 314 316 316 314 313 312 312 314 315
303 304 304 306 309 313 316 316 322 322 323 323 322 323 322 322 323 322 321 319 319 318 318 318 318 318 317 317 317 318 317 316 316 314 312 312 312 312 312 313 313 314 314
303 303 303 304 307 306 308 317 319 319 320 321 321 321 322 322 322 321 322 321 320 320 320 320 319 318 318 318 318 318 319 319 319 318 317 316 314 314 314 314 315 314 310
301 302 302 301 303 305 306 311 312 314 314 315 317 319 320 321 322 321 321 321 323 322 321 320 320 320 320 319 319 319 318 319 319 319 318 316 314 313 312 311 308 304 299
299 301 303 301 303 305 306 306 308 307 309 311 312 313 315 316 318 320 321 321 321 321 320 320 320 319 318 318 318 318 318 314 308 306 306 305 305 303 299 298 296 295 294
298 300 301 300 300 301 303 304 304 307 308 309 310 311 311 312 314 315 316 316 318 319 319 316 315 312 310 310 310 309 310 309 308 302 294 292 292 293 294 294 294 292 291
297 298 299 301 300 300 301 301 300 302 304 306 307 306 307 307 307 307 307 307 306 307 308 306 303 301 300 301 301 301 299 300 300 296 293 292 293 293 290 288 288 289 289
293 296 299 299 299 300 301 302 302 301 300 301 301 302 301 301 302 302 300 300 299 300 300 299 298 299 297 294 295 295 294 295 294 293 293 291 289 288 288 288 288 287 286
292 293 294 296 298 299 299 300 299 299 299 298 298 298 298 296 294 294 292 290 292 293 293 294 295 292 292 291 292 292 292 290 289 290 289 288 288 288 287 285 283 280 279

GFSMW_850_thetae_105.txt.gz
Theta_e
314 316 317 316 316 316 317 319 318 319 328 328 329 330 330 328 326 324 322 326 328 327 328 327 327 327 326 324 320 321 319 321 320 321 320 319 318 317 316 314 316 315 315
315 317 320 321 318 317 317 318 318 318 325 329 329 330 329 328 327 325 323 326 326 326 327 327 326 326 326 324 320 318 320 321 320 320 320 317 317 317 316 315 315 314 314
318 320 320 320 320 318 317 318 319 319 324 329 330 330 329 327 326 327 325 322 323 325 326 326 325 326 326 322 321 319 321 319 319 319 319 317 318 317 316 316 314 312 312
319 320 320 320 320 318 317 318 320 319 324 329 329 330 329 328 326 323 325 322 323 324 324 324 324 324 321 320 320 320 321 317 318 319 319 319 318 318 316 315 311 311 311
318 318 319 319 321 319 317 317 320 321 322 328 329 330 328 328 324 321 321 320 322 325 325 325 324 324 321 321 320 319 319 317 316 318 319 319 318 317 315 316 315 313 314
318 319 318 319 321 320 319 319 321 323 323 327 329 329 328 327 324 319 319 321 322 323 322 323 324 324 323 321 319 319 318 317 316 319 319 319 318 316 314 313 313 315 314
317 318 318 319 321 321 322 320 322 326 325 327 329 329 328 326 322 318 318 321 322 323 324 324 324 324 323 323 318 317 316 316 317 319 319 319 316 314 312 315 315 314 313
317 318 318 318 319 321 323 321 322 326 325 327 330 328 327 325 321 319 321 321 320 320 322 323 324 323 324 324 318 315 314 314 317 319 319 318 316 314 312 315 315 315 316
317 317 318 317 318 320 322 322 323 325 325 328 329 328 327 324 318 320 320 319 319 320 321 322 322 323 322 321 318 312 310 314 313 317 319 318 317 317 311 313 314 314 315
316 316 318 318 318 320 322 322 323 325 325 328 328 327 327 322 318 320 320 319 319 318 319 320 321 323 322 322 320 313 311 314 312 314 318 317 317 313 312 313 314 314 315
316 317 318 318 320 319 322 323 323 324 325 326 327 326 326 318 320 320 320 320 320 319 319 320 321 321 322 320 320 319 313 310 310 315 314 317 314 313 312 312 314 315 315
316 315 316 316 320 321 323 323 322 322 323 325 326 326 323 317 320 320 320 320 320 319 319 319 318 319 320 320 319 318 316 311 313 315 312 315 314 313 312 313 314 314 314
315 314 314 313 316 323 323 323 322 321 321 324 326 326 320 318 320 320 320 320 320 319 320 319 319 318 318 318 317 316 314 311 313 312 314 314 314 313 314 314 314 314 314
315 314 313 311 310 323 321 322 321 321 321 324 325 325 318 318 320 320 320 320 320 319 319 319 318 318 318 317 316 315 314 313 311 312 313 312 314 313 314 314 315 314 314
313 312 312 309 305 317 321 322 321 321 321 323 324 324 318 318 319 320 320 320 320 319 319 319 319 318 318 316 316 316 315 315 314 312 314 314 314 313 313 314 315 315 315
308 307 305 303 303 311 320 321 321 320 321 322 322 322 321 318 319 319 320 319 319 319 318 317 317 316 316 317 317 317 316 315 315 315 314 314 315 314 314 314 314 314 314
304 303 307 304 304 307 314 321 321 322 322 323 324 324 323 323 319 319 319 319 319 318 318 317 317 317 317 316 316 317 317 316 315 315 316 315 315 315 315 314 314 314 315
300 301 303 307 307 308 312 319 321 322 322 322 323 324 323 322 322 321 319 319 319 318 318 317 317 317 317 317 316 315 314 315 315 316 316 315 315 316 316 315 314 315 316
298 298 299 303 304 309 311 314 321 321 321 321 322 321 321 321 322 322 321 320 319 318 317 317 317 317 317 317 318 317 315 314 314 314 314 313 313 312 313 315 316 315 314
296 297 299 303 309 311 307 308 315 318 320 319 319 319 320 320 320 320 320 321 321 320 319 318 318 317 317 317 317 317 317 317 317 317 316 314 314 315 315 313 313 313 312
297 296 298 300 304 307 307 309 310 312 312 313 314 317 320 320 320 319 319 319 320 320 320 319 319 318 318 318 317 318 317 317 317 317 316 316 315 314 311 312 311 310 307
298 298 296 298 301 302 303 305 306 305 308 310 311 312 314 315 316 317 318 320 319 319 320 319 318 317 316 316 317 317 316 314 313 312 310 310 312 308 305 302 298 297 294
296 297 298 298 301 299 299 301 300 303 305 307 309 309 310 311 312 313 314 315 315 315 315 313 311 309 308 309 309 311 312 310 308 306 305 302 299 299 297 295 294 292 292
295 296 297 298 300 301 299 297 298 299 301 302 303 303 304 304 305 306 307 307 307 306 305 304 304 302 302 302 302 303 302 303 305 300 297 296 295 294 290 288 287 288 289
293 294 293 294 295 296 297 298 298 299 299 299 300 300 299 299 300 300 299 300 298 300 301 299 299 298 298 296 296 299 298 295 295 293 291 289 289 288 288 288 288 287 287
292 292 292 293 294 295 296 296 296 297 297 297 297 296 295 294 294 293 292 292 294 295 295 295 296 293 292 293 293 293 292 292 291 291 290 289 289 289 289 289 289 287 284

GFSMW_850_thetae_108.txt.gz
Theta_e
318 317 318 320 320 318 317 317 318 320 326 328 328 328 326 329 329 329 328 325 323 324 326 328 328 328 327 327 324 322 321 321 322 320 322 322 321 321 320 319 318 319 318
314 317 320 322 322 321 323 319 319 323 327 325 325 328 327 329 330 330 328 325 322 322 326 327 327 327 326 326 323 323 322 320 315 319 321 320 320 320 320 319 318 319 319
317 320 322 322 323 323 323 323 325 327 329 329 327 330 328 329 330 330 328 327 324 324 327 326 327 327 325 326 324 323 322 318 315 320 320 318 319 319 319 319 318 317 318
321 321 322 322 323 324 323 323 326 328 329 329 328 330 329 329 330 329 328 328 325 324 325 326 326 325 325 325 325 324 320 317 318 321 321 320 319 320 320 319 317 317 318
322 322 322 322 322 323 326 324 326 328 327 329 329 331 330 330 329 328 327 325 328 324 324 324 324 324 324 324 324 320 319 318 320 320 320 320 319 320 319 319 317 317 317
321 321 321 321 321 322 324 327 327 327 323 325 331 329 331 331 328 327 326 322 328 325 322 324 324 323 323 324 322 320 319 319 320 319 320 319 319 319 319 318 316 316 316
319 319 320 320 321 321 323 326 327 326 323 326 331 329 331 329 328 327 325 321 324 321 322 323 324 324 324 324 322 320 320 318 320 317 318 319 319 318 316 316 317 317 317
319 319 318 319 320 321 322 324 327 325 325 324 329 329 326 329 327 326 324 319 320 321 323 324 323 323 323 323 321 320 319 319 319 317 317 316 318 318 317 315 318 318 318
318 319 319 320 321 320 322 324 326 325 324 322 327 327 328 327 326 325 321 320 322 321 322 324 323 324 324 323 322 320 320 320 318 317 315 314 317 319 317 315 312 316 318
320 319 319 318 318 318 320 323 325 324 323 324 326 326 328 325 325 323 318 320 320 320 320 321 322 322 323 323 322 320 319 319 319 317 315 315 317 317 316 313 313 315 317
320 318 317 316 314 317 322 324 324 323 323 323 326 327 326 324 323 320 320 320 320 319 320 321 322 322 322 322 322 321 318 318 317 317 316 315 317 314 315 314 314 313 316
319 317 315 313 312 316 322 323 322 322 324 322 324 325 325 323 322 319 320 321 320 320 319 319 319 320 321 322 321 320 317 317 316 315 316 314 313 316 316 315 314 315 313
318 316 314 312 310 315 320 323 322 321 322 323 322 325 326 324 320 320 321 321 320 320 319 319 320 320 320 321 319 319 318 317 313 311 312 310 312 316 316 313 312 313 313
314 312 311 310 309 313 313 317 322 322 322 322 322 324 324 323 319 320 321 321 320 320 320 319 319 319 318 318 318 318 317 316 314 312 314 312 312 315 316 314 313 313 313
310 308 306 306 307 311 311 318 321 321 322 321 321 323 323 320 320 320 320 320 320 320 319 319 319 318 318 318 317 317 317 316 315 314 313 311 312 314 313 313 314 314 314
306 305 303 305 304 309 307 314 320 320 320 320 321 323 323 319 319 319 320 320 320 320 319 318 319 319 317 318 317 317 317 316 315 313 313 313 314 314 313 314 313 313 314
302 302 299 302 303 307 304 308 320 320 320 321 322 321 320 318 319 319 320 320 320 319 319 319 319 318 317 317 317 317 317 316 315 315 313 312 312 313 313 313 314 313 313
298 298 298 300 303 305 303 303 320 320 320 320 320 321 322 322 320 318 319 319 319 320 320 318 319 317 316 316 316 316 317 317 316 316 315 315 314 313 314 314 314 314 314
297 297 296 299 301 304 305 302 314 319 320 320 320 320 320 321 321 322 321 319 318 318 318 318 317 317 317 316 316 316 315 317 317 317 317 316 316 315 316 316 315 315 315
298 298 298 298 298 302 304 300 308 314 315 316 317 318 319 321 320 320 321 320 321 320 319 318 317 317 316 317 317 317 316 315 315 316 316 315 315 316 316 314 315 314 313
298 299 298 298 299 299 304 302 306 308 307 313 314 316 317 319 319 319 320 320 320 320 319 319 318 317 317 317 317 317 317 317 316 315 314 314 315 314 314 314 313 312 310
298 299 299 298 299 302 302 299 304 305 307 300 308 312 314 314 316 317 318 319 319 319 319 318 316 315 315 316 317 317 316 315 315 313 312 312 312 311 308 306 305 303 301
296 297 297 299 300 301 302 301 301 304 304 304 307 309 309 311 312 313 314 315 313 313 313 311 310 310 309 310 311 312 312 312 312 308 306 306 304 304 303 301 297 295 294
294 295 296 296 297 298 299 298 298 299 300 300 301 303 305 305 305 306 306 307 306 306 306 305 305 304 304 304 305 306 305 306 304 305 297 297 297 296 293 290 290 290 290
292 293 294 295 296 297 298 298 298 294 295 295 294 296 297 298 299 298 298 299 298 300 300 300 300 300 299 297 297 297 298 296 295 294 292 290 289 289 288 288 288 289 289
291 292 292 293 293 296 297 297 296 295 293 293 294 293 292 293 293 293 293 292 293 294 294 294 295 294 293 293 293 293 293 291 290 290 289 287 287 287 287 287 287 286 286

GFSMW_850_thetae_114.txt.gz
Theta_e
323 323 323 323 323 323 323 323 325 330 334 337 337 338 342 341 338 336 336 335 329 329 328 328 326 329 329 327 328 329 328 328 326 327 326 326 323 324 323 322 321 319 321
323 323 323 323 322 322 323 323 323 323 327 334 333 335 339 341 339 336 334 334 333 330 329 328 325 325 329 326 327 327 328 326 325 324 325 323 324 323 322 321 321 320 319
323 322 322 321 322 324 324 325 325 326 326 326 332 335 337 340 339 335 332 336 335 333 330 328 326 325 330 331 326 328 327 326 325 325 325 323 322 322 321 322 321 320 319
320 320 320 321 323 324 324 325 327 327 327 327 328 333 334 335 334 334 332 334 336 335 332 330 328 327 325 328 326 328 326 325 325 323 324 322 321 322 321 321 321 319 317
318 318 321 323 323 323 324 325 326 328 328 328 329 332 333 333 332 330 330 331 331 333 335 333 330 328 323 325 325 328 325 324 326 323 323 321 321 321 320 319 320 321 319
321 321 322 322 322 321 323 323 324 325 328 329 329 331 333 334 331 330 330 330 330 332 334 332 330 327 322 326 326 325 325 324 324 323 323 321 321 321 320 318 319 321 319
321 320 321 320 321 321 322 323 323 323 325 328 329 331 333 334 333 330 332 331 330 331 333 330 329 327 324 326 328 324 324 324 324 323 323 321 320 320 319 319 317 320 320
321 320 321 321 321 321 321 321 321 322 323 325 328 329 331 332 331 332 334 332 331 330 332 330 328 325 325 327 326 324 324 324 324 323 321 320 320 319 320 319 316 318 319
320 320 320 320 319 318 318 317 316 317 320 320 325 329 329 327 328 330 334 332 331 329 331 328 326 324 325 323 323 324 325 323 323 322 321 321 319 318 320 318 315 317 318
320 320 320 318 317 317 316 315 314 314 317 319 323 327 329 327 327 330 333 332 330 328 327 324 322 324 327 323 324 323 323 323 322 321 320 319 319 319 320 316 318 318 315
321 320 319 318 317 316 315 313 312 313 318 323 325 327 327 326 326 330 332 331 329 327 326 323 322 326 322 323 324 322 323 322 321 320 319 319 319 319 318 316 318 318 318
318 317 316 314 313 313 313 311 311 311 318 323 328 328 327 324 325 330 331 330 328 325 325 323 323 324 323 324 324 324 322 322 321 320 319 319 318 318 318 317 317 317 317
313 312 312 311 310 309 309 308 310 311 316 323 325 325 324 323 325 330 329 328 326 323 323 324 323 323 324 322 322 322 322 321 321 321 319 319 319 319 319 318 317 317 315
310 309 308 307 306 305 305 304 308 309 315 320 323 323 323 322 324 328 328 326 325 324 324 324 323 321 320 321 320 321 321 321 320 320 319 319 319 319 319 319 318 316 315
307 306 305 303 302 301 301 304 306 307 313 318 322 322 322 322 324 327 326 325 322 322 323 322 321 320 320 320 320 320 320 321 320 319 318 319 319 319 319 319 317 317 316
304 302 301 299 298 300 301 300 302 306 311 317 321 322 322 322 324 325 324 324 322 321 323 321 319 319 319 319 319 319 319 317 318 317 316 317 318 318 318 318 317 316 315
301 299 297 295 297 299 300 299 299 303 308 316 321 321 321 322 323 324 323 322 321 321 321 321 320 321 319 318 318 317 317 316 317 317 316 316 316 316 317 317 316 315 314
297 295 295 295 296 298 299 299 299 301 305 316 318 320 321 322 323 322 320 320 320 320 320 320 321 321 321 318 317 317 317 318 317 317 316 316 314 315 314 314 314 312 311
295 295 295 294 295 296 298 297 299 300 303 305 313 318 319 320 321 320 319 320 320 320 319 319 320 320 320 318 317 317 317 316 316 316 316 316 316 315 314 314 313 313 313
294 295 295 295 295 296 297 296 298 299 301 302 303 310 318 319 320 319 319 319 320 319 319 319 319 320 319 319 317 316 316 316 317 316 315 316 316 316 315 315 314 313 313
294 295 295 295 295 294 295 295 296 295 296 300 300 302 311 316 318 319 319 319 318 319 318 318 318 319 318 318 317 316 316 316 316 316 316 316 316 315 315 315 315 315 314
294 295 295 296 296 294 294 295 294 294 296 299 300 300 304 303 313 318 318 318 318 318 318 318 318 318 317 317 317 316 316 316 316 315 315 315 315 315 314 313 312 311 310
292 293 293 295 295 296 294 292 291 292 295 298 300 301 300 301 303 304 311 314 315 316 315 314 314 312 313 315 316 314 314 313 314 312 312 311 310 310 309 308 308 306 302
291 292 292 292 293 294 294 292 290 291 292 296 299 300 299 301 303 302 305 302 302 306 306 307 306 305 304 306 308 306 307 304 304 302 300 302 302 303 302 299 297 296 295
289 290 290 290 290 291 292 291 291 291 292 293 294 295 293 295 296 297 299 299 298 299 299 300 300 302 300 296 297 299 299 298 297 297 297 295 295 294 292 292 292 291 291
287 288 288 288 289 290 291 290 290 291 291 291 291 292 291 292 292 291 291 291 293 295 296 295 296 292 292 292 294 293 293 293 292 293 292 289 289 289 288 288 288 288 289

GFSMW_850_thetae_117.txt.gz
Theta_e
321 321 321 321 322 321 321 322 327 335 337 339 340 338 332 332 339 339 337 335 337 336 336 336 337 335 332 329 329 330 333 330 329 328 328 327 326 325 325 325 325 322 320
322 322 321 321 322 323 323 325 332 337 338 338 338 336 331 330 334 339 338 336 335 336 333 339 337 337 332 332 329 328 329 330 329 327 326 326 326 325 324 325 324 322 320
323 323 323 323 323 323 322 322 324 327 328 326 328 334 336 336 336 342 339 338 336 335 334 331 337 336 331 331 330 331 327 327 325 327 326 324 324 324 324 324 323 321 319
322 323 323 322 322 322 322 323 324 324 326 330 332 327 328 328 331 335 339 338 336 334 332 332 332 335 330 328 326 327 327 327 327 325 325 324 323 323 323 323 323 321 320
322 321 321 321 323 323 324 324 325 325 324 326 328 329 327 329 333 333 338 339 335 332 333 332 332 331 328 328 327 325 324 325 327 326 324 324 324 323 322 322 322 321 321
319 322 323 323 324 324 324 324 324 323 324 325 327 328 331 331 332 334 334 334 330 330 331 332 331 331 329 329 327 324 325 323 325 324 324 323 323 323 322 321 322 321 320
321 321 321 321 321 322 323 323 323 323 323 324 325 328 329 329 333 332 333 333 330 328 329 330 330 330 330 330 327 322 324 326 324 324 325 323 323 322 321 320 321 321 320
321 321 321 321 321 320 320 320 321 320 320 321 320 323 326 330 331 334 332 331 330 329 328 329 330 330 328 328 325 322 323 323 325 323 324 323 323 321 321 321 320 321 320
320 320 319 319 319 318 317 315 314 314 314 314 315 316 319 325 330 330 330 329 332 331 330 329 329 329 329 326 323 322 322 322 323 323 324 323 322 321 321 320 320 318 318
318 317 317 317 317 317 317 315 315 314 313 314 315 316 317 320 328 330 329 327 330 334 331 330 329 327 326 324 322 323 322 323 322 324 323 322 322 321 321 320 319 318 317
314 314 314 315 316 315 315 314 313 312 312 313 314 318 321 323 324 328 329 326 331 332 332 331 328 327 325 324 322 324 323 323 321 322 323 322 321 320 320 320 319 317 316
311 312 311 310 311 310 309 310 310 310 310 311 314 319 326 326 325 327 327 326 331 332 330 329 327 325 323 321 322 322 324 323 322 321 321 320 320 320 320 319 320 316 318
307 306 307 306 306 308 310 310 310 310 309 310 313 318 323 327 327 326 324 326 330 331 329 328 325 323 322 322 322 322 322 322 322 321 319 319 320 320 319 319 319 317 318
304 303 303 303 305 306 307 307 308 308 308 308 311 317 321 324 323 323 323 325 330 328 328 327 323 323 322 320 321 322 322 322 322 322 322 320 319 319 319 319 319 317 316
302 301 300 301 303 304 305 306 306 307 307 307 310 316 321 323 323 323 322 326 328 327 327 323 323 322 323 320 320 321 321 321 321 321 320 320 320 319 319 319 318 317 317
300 301 298 298 299 299 301 303 303 303 304 305 307 313 319 322 323 322 322 326 327 326 325 323 322 322 321 321 319 320 321 320 318 319 319 319 319 319 319 319 319 319 319
297 297 296 296 297 298 299 300 300 301 302 302 306 312 319 321 322 322 323 325 324 325 324 321 320 322 320 319 319 319 319 319 318 318 318 317 317 318 318 318 318 318 318
297 296 296 297 297 298 299 299 299 299 300 301 304 308 317 321 321 322 323 323 324 322 322 320 319 319 319 318 317 317 317 317 316 316 317 317 316 316 316 317 317 317 316
295 295 295 296 297 298 297 297 297 297 298 299 302 306 311 320 321 322 323 323 322 322 321 319 319 318 317 317 317 316 317 315 316 316 316 316 315 315 315 315 315 314 314
294 295 295 295 296 297 296 296 294 296 297 297 298 302 306 316 321 321 322 321 321 321 320 319 319 319 318 318 317 316 316 315 315 316 316 316 316 315 315 314 314 314 313
294 294 294 294 294 294 295 294 293 292 295 297 298 300 304 308 317 320 320 320 320 320 321 320 319 319 319 318 317 316 316 316 316 315 315 315 315 315 315 315 315 314 314
293 293 293 293 294 294 293 293 293 293 294 298 298 298 301 304 305 315 319 320 320 320 320 319 318 318 318 318 317 316 316 315 315 315 316 316 316 316 314 314 313 314 313
291 291 291 293 293 293 293 292 291 293 295 297 297 297 298 302 301 300 308 313 316 316 316 316 316 317 317 316 315 315 315 314 314 314 314 314 315 314 313 312 312 311 308
289 289 290 291 291 291 292 292 292 293 294 294 294 295 296 298 300 301 300 301 303 308 307 308 310 308 309 309 309 311 310 311 309 308 306 306 308 308 308 305 302 301 299
287 288 288 288 289 290 291 292 292 292 291 291 291 292 292 292 294 295 297 299 298 300 301 299 298 299 300 300 301 302 302 302 305 301 301 300 298 300 297 295 295 295 294
285 286 287 287 288 289 289 290 290 290 291 290 289 288 289 289 289 290 289 291 291 292 294 294 297 291 292 294 296 297 297 296 299 297 297 294 292 293 291 291 291 291 291

GFSMW_850_thetae_120.txt.gz
Theta_e
321 321 321 321 320 320 321 321 321 327 334 337 337 338 338 337 335 333 332 335 336 337 335 332 333 336 336 334 333 332 332 329 329 328 329 328 328 326 326 326 326 325 324
320 321 321 321 321 321 321 321 321 325 331 334 337 338 338 338 336 335 332 336 337 337 337 335 333 333 334 335 334 332 330 329 328 328 327 327 326 324 326 326 325 325 324
319 320 320 321 321 321 321 321 322 323 330 334 337 338 337 334 336 338 336 334 337 338 337 336 335 334 334 333 332 331 329 328 327 326 326 324 324 323 325 324 325 324 324
319 320 322 320 320 323 324 325 334 339 338 339 338 337 334 331 330 330 333 329 332 336 337 337 336 334 333 332 332 331 328 327 325 324 326 325 324 324 324 325 325 324 323
318 320 322 323 324 326 326 327 330 332 332 332 332 333 338 337 332 329 329 329 336 336 334 334 333 332 331 332 331 330 329 325 325 323 325 323 324 323 323 323 324 324 323
321 322 323 324 324 324 325 325 325 325 324 325 326 327 329 332 337 337 335 333 335 336 332 333 333 330 331 330 330 331 328 325 324 323 324 324 324 324 323 323 323 323 323
322 322 322 322 323 323 322 323 322 322 322 323 324 325 326 327 329 332 334 334 335 335 334 335 331 331 330 331 330 329 328 325 323 322 323 323 323 323 323 323 323 322 322
319 319 319 320 318 318 319 320 320 320 318 316 316 317 320 322 325 327 330 332 331 331 331 331 329 328 331 330 329 328 328 325 323 323 324 322 322 324 324 323 323 322 321
314 314 316 316 317 318 318 317 316 314 313 313 313 313 313 314 315 320 326 330 332 329 329 328 328 327 328 330 329 328 327 324 322 322 323 323 323 324 323 322 322 322 320
310 311 311 313 314 315 315 315 315 315 314 313 313 313 314 314 315 316 318 327 330 330 328 328 330 329 328 328 330 329 326 323 321 322 322 322 323 323 323 321 321 322 321
307 307 308 309 309 310 312 312 312 312 312 312 312 312 313 314 316 318 318 322 328 330 328 327 329 331 329 329 330 328 326 322 321 322 321 322 322 323 322 321 321 321 320
305 305 306 308 308 309 309 310 311 311 311 312 312 313 314 314 317 324 323 321 326 329 328 326 328 332 329 328 327 326 325 321 322 321 322 322 322 321 321 321 321 321 320
305 304 306 309 309 308 309 308 308 308 309 310 311 312 312 314 319 324 326 325 325 327 326 326 329 330 329 327 326 324 323 321 321 323 321 320 321 320 320 320 320 320 320
300 299 302 303 304 305 306 306 307 306 306 307 308 309 311 314 318 323 325 326 326 325 325 326 328 329 327 325 321 322 321 322 322 322 322 321 320 319 319 320 320 320 319
299 297 297 300 302 303 303 303 303 303 304 305 305 306 309 314 317 320 323 323 323 323 324 325 329 328 326 323 321 321 321 320 322 322 321 321 321 320 320 320 320 320 318
296 295 297 299 300 300 301 301 301 302 302 302 303 304 307 312 317 320 322 323 323 322 325 328 326 325 322 321 321 321 320 322 321 322 321 320 320 320 320 319 320 320 319
295 294 295 297 298 299 299 299 299 299 300 301 302 304 306 311 316 320 322 322 322 323 324 327 324 323 322 321 319 320 320 320 320 320 320 320 319 319 319 319 319 319 319
295 294 295 298 297 298 299 299 299 299 300 300 301 302 305 308 313 318 321 322 322 323 325 324 323 322 321 320 318 318 319 319 319 319 319 319 318 318 318 319 319 318 318
294 294 294 295 296 297 298 298 299 300 299 299 299 301 302 306 310 315 321 321 322 322 324 323 322 323 321 318 318 317 318 318 317 317 317 317 317 316 317 317 318 317 317
293 294 294 295 296 297 297 297 297 297 297 297 296 298 300 302 307 312 320 322 322 321 322 321 321 320 318 317 317 316 316 316 316 315 316 316 316 316 315 316 316 316 316
293 294 295 295 295 295 296 296 295 294 294 296 296 298 299 301 303 308 314 320 322 322 321 321 320 319 318 317 316 316 315 315 315 316 316 316 315 315 314 314 314 314 314
292 292 292 292 293 295 296 295 294 292 294 295 296 297 298 299 301 303 306 314 317 321 319 319 319 318 318 317 316 316 316 315 315 315 316 316 316 315 315 314 314 314 314
289 290 290 292 293 293 293 293 292 291 293 293 295 296 296 297 298 300 303 300 305 313 315 317 316 317 317 317 316 316 315 315 315 315 315 315 314 315 315 314 314 313 312
288 289 291 292 292 292 291 290 291 291 291 292 293 293 294 294 293 293 298 298 299 301 304 307 310 311 310 313 314 315 315 315 314 315 315 315 315 314 313 313 310 308 306
287 288 289 289 289 290 290 290 290 290 290 290 290 291 291 291 289 288 288 294 294 297 296 297 303 302 303 303 303 305 309 310 309 309 307 307 308 307 303 301 300 298 298
286 287 287 288 288 288 289 289 289 289 290 290 289 289 290 289 289 287 287 287 287 291 293 295 298 295 297 297 298 298 298 302 304 303 300 297 298 299 297 297 295 295 294

GFSMW_850_thetae_123.txt.gz
Theta_e
320 320 321 321 320 320 322 331 328 323 329 336 338 336 333 332 333 333 333 335 336 336 335 334 332 333 335 334 335 334 333 332 330 328 328 328 328 328 328 327 325 328 325
319 320 320 321 321 321 320 320 320 320 321 326 330 337 336 335 335 335 335 333 337 337 336 336 336 334 335 335 333 333 332 330 329 327 326 325 326 327 325 327 324 327 326
318 320 320 320 320 320 321 320 320 320 320 323 332 338 339 338 337 337 335 334 335 337 338 336 336 336 335 334 332 332 332 330 329 327 326 327 325 324 323 324 323 325 326
316 318 317 318 319 318 319 319 319 321 324 330 338 338 339 337 336 335 332 332 330 335 337 337 337 336 335 333 331 332 331 330 329 328 326 325 324 323 323 322 322 324 325
316 316 318 319 320 321 323 327 329 332 335 336 339 339 337 335 335 333 329 330 331 333 336 337 336 333 334 334 332 331 332 331 329 327 326 324 324 326 323 323 323 323 324
318 319 322 324 324 326 330 330 330 328 332 336 337 336 334 335 334 333 335 336 333 331 333 335 335 331 332 333 332 329 330 332 330 328 325 325 322 323 323 322 323 323 324
315 314 317 318 318 318 319 320 322 322 323 325 326 328 329 329 330 331 334 335 336 336 333 333 333 332 330 331 332 329 329 331 331 329 326 324 322 322 323 323 323 323 323
313 311 311 314 314 315 316 316 317 318 318 320 321 321 322 322 323 325 327 328 331 333 334 332 331 332 333 333 331 330 329 329 330 329 326 324 322 321 322 323 322 322 322
309 309 310 311 313 314 315 315 315 315 314 313 312 312 313 313 313 313 316 319 324 328 330 331 332 331 329 328 327 329 331 329 328 327 327 324 322 322 323 322 322 323 322
305 306 308 308 310 311 312 312 314 313 313 312 312 312 312 312 312 313 313 314 315 318 327 329 331 330 328 326 326 328 330 329 329 328 327 323 320 322 322 322 322 323 322
301 302 304 307 307 308 309 311 312 313 312 311 311 311 312 312 312 313 312 313 316 316 319 327 330 330 327 327 327 327 328 328 329 328 325 320 321 322 322 322 323 323 322
300 301 304 306 308 308 308 308 310 310 310 311 311 311 312 312 312 313 314 315 317 318 318 324 329 330 327 326 330 329 328 328 329 327 324 319 322 321 322 322 322 322 321
299 299 302 302 301 302 303 304 306 307 308 309 310 310 311 311 312 313 314 315 322 325 321 322 329 329 328 325 329 329 328 328 330 326 322 320 321 321 321 321 321 321 321
298 298 299 301 302 302 303 304 306 306 306 306 307 309 310 309 311 312 314 318 324 325 324 324 329 328 326 325 328 330 327 328 327 324 321 321 322 322 321 321 320 321 319
297 300 299 301 302 303 302 302 302 304 304 305 305 306 306 307 308 310 314 318 323 324 324 326 327 327 325 326 329 329 326 326 323 321 321 321 322 321 320 320 319 319 319
295 295 295 296 296 299 300 300 303 302 302 302 301 302 303 305 307 309 312 317 321 323 323 323 323 323 325 326 328 327 325 321 320 321 321 321 322 321 321 320 319 319 319
293 292 293 294 295 296 297 298 299 300 300 300 300 301 302 304 306 308 312 316 319 321 322 323 323 324 325 324 327 324 321 320 320 320 320 322 321 321 321 320 319 319 319
291 291 292 295 297 298 299 299 299 299 299 299 299 300 301 303 305 307 310 316 319 320 322 321 321 322 326 326 325 320 320 320 320 320 321 321 320 320 320 319 319 319 319
291 292 294 296 297 298 297 296 297 297 298 299 298 298 299 300 302 305 309 314 318 319 321 322 320 323 323 324 321 319 318 318 319 319 319 319 319 319 319 319 319 318 319
291 292 294 295 296 296 296 295 296 296 297 296 296 297 298 298 299 302 307 312 317 320 321 322 322 321 324 322 320 318 318 318 319 319 319 318 318 318 318 317 318 317 317
290 290 292 292 293 294 293 294 294 294 294 295 295 296 297 297 297 300 303 307 311 318 321 321 320 323 322 321 318 317 317 318 318 318 317 316 316 317 316 316 316 317 317
291 291 291 291 291 292 293 293 293 292 292 293 294 294 294 293 294 297 299 300 306 311 313 319 321 320 318 318 316 316 316 316 316 315 315 316 316 315 315 315 314 315 315
289 289 290 291 292 293 292 292 291 290 291 293 293 292 292 291 292 295 296 297 300 303 301 307 317 316 316 315 315 314 315 315 315 316 316 316 316 315 314 314 314 314 314
287 288 289 289 290 290 290 289 289 290 291 291 291 291 290 290 290 291 291 293 296 298 299 296 303 309 313 313 314 314 315 315 315 315 315 315 315 315 315 315 314 312 310
286 286 287 287 287 288 288 288 288 289 290 290 290 290 289 289 288 287 287 287 287 293 294 292 294 297 299 302 302 311 314 313 312 314 313 313 312 311 309 309 308 306 305
285 285 285 286 286 287 287 288 287 287 288 289 288 288 288 288 289 288 287 287 288 288 290 290 289 288 292 298 300 300 301 304 305 305 305 303 304 302 302 299 298 299 299

GFSMW_850_thetae_126.txt.gz
Theta_e
310 314 315 317 318 332 335 335 334 334 334 334 333 330 326 323 321 321 321 323 325 328 329 330 330 328 329 331 332 336 334 332 332 330 328 326 326 326 326 327 327 326 326
308 313 315 317 318 320 324 331 335 335 335 335 335 335 335 334 328 325 326 329 331 332 333 333 334 332 331 332 332 334 333 332 331 329 327 325 327 324 326 325 324 325 325
307 312 316 317 319 319 322 328 330 329 333 336 337 338 338 337 335 332 332 333 334 334 334 334 335 335 335 334 332 333 332 330 330 329 328 326 324 323 322 324 323 323 322
309 311 314 316 317 319 319 319 320 321 324 335 335 336 336 337 337 336 335 336 335 334 332 332 332 334 336 336 335 333 331 331 331 331 329 328 325 324 323 322 321 322 322
310 312 315 316 317 317 318 318 317 318 324 332 334 335 336 336 337 337 336 335 334 333 329 329 333 335 337 334 334 333 332 329 330 331 330 328 327 326 326 323 323 322 322
314 315 317 319 321 321 322 322 320 319 323 326 335 338 338 336 334 334 333 333 328 330 329 330 334 336 334 333 331 332 331 330 330 330 332 330 328 327 325 323 321 321 321
309 309 311 315 322 323 326 329 332 331 331 333 334 336 335 335 335 333 329 325 323 329 329 329 329 330 332 332 329 330 332 331 329 328 328 331 329 327 324 323 321 322 322
305 305 306 308 310 311 312 314 316 317 319 320 323 326 329 329 329 328 327 324 328 330 329 332 333 333 334 331 330 330 330 331 331 329 328 330 331 327 324 323 321 322 322
303 302 303 305 306 307 310 311 311 311 312 312 313 314 315 318 319 321 323 325 324 323 325 328 332 333 332 331 331 331 330 331 328 328 328 328 328 328 325 323 321 321 322
301 301 301 302 303 305 306 308 309 310 311 311 311 311 312 312 312 313 312 313 313 313 314 318 325 329 331 331 331 330 329 326 325 328 329 329 328 327 327 322 322 322 321
299 299 299 300 302 305 307 307 308 309 311 313 313 311 310 310 311 311 312 312 312 312 313 314 315 325 329 331 331 331 329 325 325 328 330 329 328 328 327 320 321 322 322
298 298 299 298 301 306 307 304 306 309 309 310 310 310 310 310 310 311 311 312 312 313 314 315 316 315 324 330 331 329 326 326 326 327 328 329 328 327 324 320 321 321 322
297 296 295 296 303 307 307 307 307 307 308 308 308 308 308 309 309 310 311 311 312 313 314 315 318 318 318 328 330 329 326 327 328 328 327 328 328 326 319 321 320 320 322
295 295 296 298 299 302 303 305 305 305 305 305 306 307 307 308 308 309 309 310 311 313 315 318 323 325 324 327 329 329 328 326 329 328 327 328 328 324 320 320 320 321 321
294 294 296 294 297 300 300 300 299 301 303 304 306 306 306 305 306 307 308 309 310 313 315 319 321 325 324 325 328 328 327 326 328 328 327 326 326 320 320 321 321 322 321
292 292 294 296 296 298 298 298 299 301 303 303 304 303 304 304 305 306 307 309 309 311 315 319 322 324 326 324 327 327 324 326 328 328 326 326 322 321 321 322 321 320 320
290 290 292 292 292 295 294 297 299 300 302 303 302 301 303 303 303 303 305 307 310 311 314 319 322 323 323 324 325 325 324 326 325 327 326 322 320 321 321 321 321 320 320
289 290 291 291 292 293 295 295 298 299 301 300 300 301 301 301 302 302 302 305 308 311 314 317 321 322 323 323 323 322 325 325 326 325 321 320 320 320 321 321 320 320 320
289 289 290 291 290 293 293 295 296 296 297 297 297 298 298 298 298 298 299 302 306 310 315 317 320 322 321 321 321 322 325 324 323 321 319 320 320 321 321 320 319 319 319
290 290 291 291 291 292 292 293 294 294 294 294 295 295 296 296 295 295 297 299 302 307 313 318 318 320 320 321 320 322 323 324 320 319 319 320 320 320 319 320 320 319 319
290 290 291 290 291 291 292 292 292 292 291 293 293 294 295 295 294 294 295 297 300 303 308 317 318 320 320 320 322 323 323 320 320 317 319 319 319 318 318 318 318 318 318
289 289 289 289 290 291 291 290 291 291 290 291 292 292 292 292 292 293 294 296 297 299 302 308 312 318 318 319 320 321 321 319 318 317 317 318 318 317 317 317 317 316 317
286 287 288 288 288 289 289 290 290 291 290 290 290 291 291 290 289 291 290 292 294 295 297 299 303 306 311 314 316 318 318 318 317 318 317 317 315 315 316 315 315 315 315
286 286 286 287 287 288 288 288 288 289 288 289 289 289 288 288 289 288 288 287 289 290 292 295 297 298 300 302 310 315 316 316 315 316 315 314 315 315 315 314 314 313 313
285 285 285 285 286 287 287 288 288 289 289 289 289 289 289 288 289 286 286 286 286 285 286 287 290 295 297 294 298 305 312 313 313 313 314 314 313 313 311 310 310 309 308
284 284 284 284 284 285 285 286 286 287 287 288 287 287 288 288 288 289 287 287 288 288 288 287 287 288 290 292 294 298 301 300 308 303 309 307 306 306 306 305 303 302 301

GFSMW_850_thetae_129.txt.gz
Theta_e
305 306 305 305 309 313 317 317 328 332 322 322 321 321 319 320 320 319 319 320 320 320 321 323 324 324 323 325 328 329 332 332 332 331 331 330 328 327 326 326 326 326 326
305 305 305 304 307 312 319 318 321 333 332 323 321 321 321 320 321 321 320 321 322 322 322 322 324 325 325 326 328 330 332 332 332 331 331 331 328 327 325 325 324 325 324
305 304 305 304 306 310 313 316 318 324 335 333 330 328 328 326 326 325 323 322 322 323 326 326 329 331 332 331 329 331 333 332 331 331 331 329 328 326 324 323 323 324 324
303 304 304 304 307 310 313 315 321 328 334 335 335 334 334 334 334 333 330 327 325 326 332 332 334 334 332 334 333 333 333 331 331 330 330 329 327 326 325 323 322 321 321
307 304 304 305 310 312 314 314 322 332 334 336 336 336 337 337 337 337 337 335 331 332 334 333 334 332 330 332 334 335 335 333 332 330 329 329 329 328 326 326 325 324 324
309 310 312 312 316 317 315 313 316 330 334 336 336 337 337 338 338 337 335 336 335 334 333 332 326 324 330 330 330 332 333 334 333 331 329 329 330 330 328 327 326 325 324
303 304 305 307 311 315 320 322 322 325 330 334 338 337 337 336 336 335 336 336 334 333 331 327 326 324 326 328 328 329 330 331 331 331 329 329 329 329 330 329 327 325 324
301 300 300 301 303 305 320 321 325 326 328 331 333 335 334 333 336 334 334 329 327 324 323 324 323 323 325 328 329 330 330 330 330 331 331 330 328 327 328 330 328 325 323
300 299 299 301 300 304 309 313 314 316 321 324 327 327 327 329 330 331 331 329 326 323 322 322 322 325 329 330 331 331 332 330 329 329 330 331 331 327 327 330 329 326 323
298 297 297 298 299 303 305 306 308 308 310 311 313 313 313 313 315 317 321 323 326 327 327 327 327 328 329 332 334 335 334 333 332 330 329 330 327 328 327 328 329 326 323
296 295 295 295 298 300 302 304 306 306 308 308 310 310 309 310 312 311 312 313 313 313 313 314 314 314 316 321 327 331 333 333 331 330 329 327 325 328 328 328 328 326 323
294 294 294 295 296 297 299 301 302 304 304 305 306 308 309 310 310 310 310 310 311 311 311 312 312 312 312 313 315 324 332 333 331 331 330 326 325 328 329 328 327 326 321
293 293 293 294 295 294 295 297 300 303 304 304 304 305 307 308 309 309 309 310 310 311 311 311 312 312 312 313 314 315 325 327 331 330 328 326 326 327 328 328 328 327 320
292 291 291 291 294 292 292 298 303 307 307 307 306 305 307 308 308 308 308 309 309 310 310 311 312 313 313 313 315 318 320 327 328 329 326 326 326 327 327 328 327 323 320
291 290 290 291 293 297 299 299 300 302 302 302 302 303 306 306 306 308 308 308 309 309 309 310 311 313 316 317 321 321 320 326 328 328 326 327 327 328 327 327 326 321 320
290 289 290 293 295 295 295 296 296 298 300 301 301 304 304 304 305 305 304 305 306 308 309 310 310 312 316 319 322 322 322 323 326 328 327 325 327 328 327 328 324 320 320
288 289 290 292 293 295 293 294 296 299 300 301 299 300 301 302 303 304 304 305 305 306 308 309 310 312 316 320 322 324 322 323 325 326 325 325 326 327 325 323 320 321 321
289 289 290 291 291 292 293 292 293 295 296 297 297 299 300 301 301 302 302 302 302 303 306 309 311 313 316 320 322 322 324 324 323 324 323 325 324 326 325 321 321 321 321
287 289 289 289 289 291 291 291 293 294 294 292 294 295 296 296 297 298 298 298 299 301 304 307 310 313 316 319 322 322 323 323 323 323 324 325 323 326 321 321 321 319 321
289 289 289 289 291 292 292 293 293 293 292 292 293 293 293 294 294 296 296 297 298 299 300 304 307 311 316 319 321 321 321 322 322 323 324 323 322 320 320 321 320 321 321
287 288 288 288 289 290 291 291 291 291 290 291 292 292 292 293 293 293 294 295 296 299 299 300 303 306 312 318 318 320 321 321 322 320 323 322 320 319 320 320 321 321 320
286 287 288 288 288 289 290 289 290 289 289 290 290 291 291 292 292 292 293 293 295 295 297 298 300 302 307 313 317 319 319 319 321 322 321 320 319 319 320 320 319 319 319
285 285 286 287 287 288 287 288 288 289 290 290 290 290 290 290 290 290 290 291 292 291 292 292 295 299 301 303 310 316 318 315 319 321 319 319 319 320 319 318 318 317 317
284 285 285 285 286 286 287 287 288 288 288 289 289 289 289 289 290 288 288 286 287 289 289 288 289 292 296 299 300 303 307 311 316 318 318 318 318 318 318 317 316 316 315
283 283 284 284 285 285 286 286 287 288 287 287 288 288 288 289 288 287 286 286 284 285 287 286 286 288 289 289 292 298 299 302 310 313 314 315 314 315 313 314 313 313 312
282 283 283 283 284 284 285 285 286 286 287 287 287 286 287 288 288 289 287 287 288 288 288 288 289 288 288 289 290 293 298 297 299 301 303 304 305 305 307 308 307 307 307